AFR52VY LFPG-LPPR

Flight info

Callsign AFR52VY
Flight time N/A
Altitude 35000
Route LGL UT176 TERPO UN872 ERIGA UZ218 FUJTI DCT ATLEN DCT INSID/N0363F230 T326 ASPOR
Aircraft A20N/M-SDE2E3FGHIRWXY/LB1

Departure

Time 2026-05-07 17:06
Airport Charles de Gaulle International Airport (LFPG)

Arrival

Time N/A
Airport Francisco de Sá Carneiro Airport (LPPR)
Time Latitude Longitude Altitude Speed Heading
2026-05-07 16:34 49.00685 2.58015 0 ft 0 kts 254°
2026-05-07 16:53 49.00686 2.58020 353 ft 3 kts 254°
2026-05-07 16:54 49.00694 2.58059 361 ft 4 kts 254°
2026-05-07 16:54 49.00700 2.58091 358 ft 4 kts 261°
2026-05-07 16:54 49.00696 2.58125 355 ft 4 kts 324°
2026-05-07 16:54 49.00682 2.58136 356 ft 0 kts 355°
2026-05-07 16:55 49.00701 2.58124 354 ft 4 kts 325°
2026-05-07 16:55 49.00702 2.58100 356 ft 4 kts 258°
2026-05-07 16:55 49.00703 2.58107 356 ft 4 kts 271°
2026-05-07 16:55 49.00691 2.58132 359 ft 4 kts 345°
2026-05-07 16:56 49.00666 2.58138 355 ft 4 kts 355°
2026-05-07 16:56 49.00648 2.58141 355 ft 0 kts 355°
2026-05-07 16:59 49.00667 2.58138 355 ft 8 kts 355°
2026-05-07 16:59 49.00777 2.58123 354 ft 21 kts 354°
2026-05-07 16:59 49.00892 2.58016 358 ft 22 kts 281°
2026-05-07 16:59 49.00886 2.57782 357 ft 23 kts 263°
2026-05-07 17:00 49.00873 2.57535 357 ft 24 kts 268°
2026-05-07 17:00 49.00865 2.57366 361 ft 24 kts 265°
2026-05-07 17:00 49.00853 2.57103 355 ft 25 kts 266°
2026-05-07 17:00 49.00836 2.56833 360 ft 26 kts 262°
2026-05-07 17:01 49.00817 2.56557 355 ft 26 kts 265°
2026-05-07 17:01 49.00801 2.56277 355 ft 27 kts 263°
2026-05-07 17:01 49.00770 2.55995 355 ft 27 kts 260°
2026-05-07 17:01 49.00746 2.55704 357 ft 28 kts 263°
2026-05-07 17:02 49.00717 2.55419 357 ft 25 kts 261°
2026-05-07 17:02 49.00635 2.55261 355 ft 20 kts 180°
2026-05-07 17:02 49.00494 2.55316 356 ft 22 kts 172°
2026-05-07 17:02 49.00348 2.55374 360 ft 22 kts 161°
2026-05-07 17:03 49.00244 2.55427 355 ft 7 kts 165°
2026-05-07 17:03 49.00189 2.55450 360 ft 9 kts 165°
2026-05-07 17:03 49.00118 2.55479 356 ft 12 kts 165°
2026-05-07 17:03 49.00032 2.55514 356 ft 14 kts 165°
2026-05-07 17:04 48.99950 2.55548 357 ft 3 kts 164°
2026-05-07 17:04 48.99919 2.55561 354 ft 6 kts 165°
2026-05-07 17:04 48.99904 2.55568 361 ft 1 kts 162°
2026-05-07 17:04 48.99882 2.55586 357 ft 11 kts 144°
2026-05-07 17:05 48.99849 2.55675 359 ft 12 kts 107°
2026-05-07 17:05 48.99814 2.55868 363 ft 20 kts 95°
2026-05-07 17:05 48.99715 2.56040 356 ft 23 kts 168°
2026-05-07 17:05 48.99657 2.56066 357 ft 0 kts 154°
2026-05-07 17:06 48.99613 2.56242 360 ft 50 kts 73°
2026-05-07 17:06 48.99676 2.57161 352 ft 124 kts 92°
2026-05-07 17:06 48.99761 2.58726 357 ft 179 kts 88°
2026-05-07 17:06 48.99855 2.60724 1043 ft 180 kts 84°
2026-05-07 17:07 48.99947 2.62537 2056 ft 175 kts 84°
2026-05-07 17:07 49.00045 2.64462 2745 ft 192 kts 84°
2026-05-07 17:07 49.00160 2.66580 3274 ft 211 kts 84°
2026-05-07 17:07 49.00288 2.68854 3739 ft 231 kts 84°
2026-05-07 17:08 49.00438 2.71476 4267 ft 252 kts 85°
2026-05-07 17:08 49.00582 2.74199 4948 ft 262 kts 85°
2026-05-07 17:08 49.00723 2.76991 5820 ft 266 kts 86°
2026-05-07 17:08 49.00673 2.79816 6666 ft 269 kts 99°
2026-05-07 17:09 49.00357 2.82647 7502 ft 273 kts 100°
2026-05-07 17:09 49.00031 2.85496 8331 ft 278 kts 101°
2026-05-07 17:09 48.99695 2.88428 9130 ft 282 kts 101°
2026-05-07 17:09 48.99355 2.91391 9914 ft 287 kts 101°
2026-05-07 17:10 48.99008 2.94426 10466 ft 302 kts 101°
2026-05-07 17:10 48.98584 2.97679 10686 ft 325 kts 109°
2026-05-07 17:10 48.97480 3.00748 11014 ft 339 kts 132°
2026-05-07 17:10 48.95633 3.02973 11681 ft 342 kts 154°
2026-05-07 17:11 48.93355 3.04011 12366 ft 345 kts 175°
2026-05-07 17:11 48.90966 3.03705 13022 ft 348 kts 197°
2026-05-07 17:11 48.88790 3.02078 13674 ft 351 kts 218°
2026-05-07 17:11 48.87138 2.99358 14321 ft 353 kts 239°
2026-05-07 17:12 48.86234 2.95939 15002 ft 355 kts 259°
2026-05-07 17:12 48.86141 2.92226 15644 ft 357 kts 275°
2026-05-07 17:12 48.86372 2.88452 16265 ft 361 kts 274°
2026-05-07 17:12 48.86399 2.84615 16885 ft 365 kts 267°
2026-05-07 17:13 48.86156 2.80820 17464 ft 368 kts 262°
2026-05-07 17:13 48.85737 2.77098 18034 ft 371 kts 259°
2026-05-07 17:13 48.85203 2.73248 18610 ft 375 kts 258°
2026-05-07 17:13 48.84633 2.69426 19165 ft 378 kts 257°
2026-05-07 17:14 48.84041 2.65527 19716 ft 381 kts 257°
2026-05-07 17:14 48.83448 2.61611 20399 ft 380 kts 257°
2026-05-07 17:14 48.82855 2.57681 20895 ft 384 kts 257°
2026-05-07 17:14 48.82261 2.53724 21425 ft 386 kts 257°
2026-05-07 17:15 48.81672 2.49804 21920 ft 389 kts 257°
2026-05-07 17:15 48.81089 2.45925 22429 ft 391 kts 257°
2026-05-07 17:15 48.80494 2.41896 22891 ft 394 kts 259°
2026-05-07 17:15 48.80145 2.37764 23386 ft 396 kts 267°
2026-05-07 17:16 48.80110 2.33573 23816 ft 399 kts 270°
2026-05-07 17:16 48.80128 2.29350 24307 ft 401 kts 270°
2026-05-07 17:16 48.80138 2.25218 24711 ft 404 kts 270°
2026-05-07 17:16 48.80144 2.20875 25123 ft 407 kts 270°
2026-05-07 17:17 48.80147 2.16566 25549 ft 410 kts 270°
2026-05-07 17:17 48.80147 2.12234 25926 ft 412 kts 270°
2026-05-07 17:17 48.80146 2.07871 26304 ft 415 kts 270°
2026-05-07 17:17 48.80144 2.03481 26670 ft 418 kts 270°
2026-05-07 17:18 48.80139 1.99052 27022 ft 420 kts 270°
2026-05-07 17:18 48.80134 1.94612 27364 ft 423 kts 270°
2026-05-07 17:18 48.80126 1.90131 27665 ft 426 kts 270°
2026-05-07 17:18 48.80117 1.85736 28021 ft 427 kts 270°
2026-05-07 17:19 48.80107 1.81325 28314 ft 430 kts 270°
2026-05-07 17:19 48.80095 1.76823 28491 ft 435 kts 270°
2026-05-07 17:19 48.80080 1.72237 28782 ft 437 kts 270°
2026-05-07 17:19 48.80063 1.67613 29090 ft 439 kts 270°
2026-05-07 17:20 48.80045 1.63136 29370 ft 440 kts 270°
2026-05-07 17:20 48.80025 1.58489 29618 ft 443 kts 270°
2026-05-07 17:20 48.80003 1.53813 29850 ft 445 kts 270°
2026-05-07 17:20 48.79979 1.49100 30124 ft 447 kts 270°
2026-05-07 17:21 48.79952 1.44388 30386 ft 449 kts 270°
2026-05-07 17:21 48.79924 1.39633 30648 ft 451 kts 270°
2026-05-07 17:21 48.79894 1.34867 30917 ft 452 kts 270°
2026-05-07 17:21 48.79861 1.30094 31201 ft 453 kts 270°
2026-05-07 17:22 48.79827 1.25325 31559 ft 452 kts 270°
2026-05-07 17:22 48.79791 1.20560 31892 ft 452 kts 270°
2026-05-07 17:22 48.79752 1.15796 32211 ft 451 kts 270°
2026-05-07 17:22 48.79712 1.11046 32521 ft 450 kts 269°
2026-05-07 17:23 48.79670 1.06301 32820 ft 450 kts 269°
2026-05-07 17:23 48.79626 1.01564 33110 ft 449 kts 269°
2026-05-07 17:23 48.79580 0.96829 33425 ft 448 kts 269°
2026-05-07 17:23 48.79533 0.92115 33717 ft 447 kts 269°
2026-05-07 17:24 48.79483 0.87411 33975 ft 446 kts 269°
2026-05-07 17:24 48.79432 0.82708 34320 ft 443 kts 269°
2026-05-07 17:24 48.79380 0.78041 34575 ft 443 kts 269°
2026-05-07 17:24 48.79326 0.73447 34838 ft 441 kts 269°
2026-05-07 17:25 48.79269 0.68798 34967 ft 441 kts 269°
2026-05-07 17:25 48.79212 0.64207 34971 ft 440 kts 269°
2026-05-07 17:25 48.78756 0.57124 34971 ft 441 kts 257°
2026-05-07 17:26 48.76379 0.48582 34972 ft 443 kts 237°
2026-05-07 17:26 48.72456 0.41283 34972 ft 444 kts 231°
2026-05-07 17:27 48.68479 0.34218 34971 ft 444 kts 231°
2026-05-07 17:27 48.64470 0.27106 34975 ft 444 kts 231°
2026-05-07 17:28 48.60454 0.20008 34975 ft 444 kts 231°
2026-05-07 17:28 48.56511 0.13051 34973 ft 444 kts 231°
2026-05-07 17:29 48.52527 0.05963 34945 ft 441 kts 231°
2026-05-07 17:29 48.48519 -0.01155 34948 ft 447 kts 231°
2026-05-07 17:30 48.44511 -0.08242 34944 ft 445 kts 231°
2026-05-07 17:30 48.40485 -0.15341 34947 ft 446 kts 231°
2026-05-07 17:31 48.36452 -0.22434 34944 ft 446 kts 231°
2026-05-07 17:31 48.32412 -0.29486 34940 ft 445 kts 230°
2026-05-07 17:32 48.28349 -0.36477 34937 ft 445 kts 230°
2026-05-07 17:32 48.24972 -0.42282 34934 ft 444 kts 230°
2026-05-07 17:33 48.20218 -0.50441 34934 ft 444 kts 230°
2026-05-07 17:33 48.16181 -0.57351 34935 ft 444 kts 230°
2026-05-07 17:34 48.12125 -0.64274 34942 ft 441 kts 230°
2026-05-07 17:34 48.08048 -0.71219 34943 ft 445 kts 230°
2026-05-07 17:35 48.03967 -0.78150 34940 ft 444 kts 230°
2026-05-07 17:35 47.99880 -0.85073 34944 ft 444 kts 230°
2026-05-07 17:36 47.95793 -0.91977 34945 ft 444 kts 230°
2026-05-07 17:36 47.91697 -0.98885 34945 ft 444 kts 230°
2026-05-07 17:37 47.87606 -1.05767 34947 ft 444 kts 230°
2026-05-07 17:37 47.83548 -1.12569 34948 ft 444 kts 230°
2026-05-07 17:38 47.79443 -1.19432 34942 ft 444 kts 230°
2026-05-07 17:38 47.75330 -1.26291 34945 ft 444 kts 230°
2026-05-07 17:39 47.71217 -1.33133 34942 ft 443 kts 229°
2026-05-07 17:39 47.67129 -1.39915 34945 ft 441 kts 229°
2026-05-07 17:40 47.63032 -1.46695 34943 ft 441 kts 229°
2026-05-07 17:40 47.58934 -1.53463 34944 ft 441 kts 229°
2026-05-07 17:41 47.54840 -1.60216 34943 ft 441 kts 229°
2026-05-07 17:41 47.50735 -1.66972 34943 ft 441 kts 229°
2026-05-07 17:42 47.46626 -1.73714 34951 ft 441 kts 229°
2026-05-07 17:42 47.42547 -1.80394 34944 ft 441 kts 229°
2026-05-07 17:43 47.38428 -1.87120 34945 ft 441 kts 229°
2026-05-07 17:43 47.33972 -1.93351 34946 ft 443 kts 219°
2026-05-07 17:44 47.28831 -1.98347 34923 ft 444 kts 212°
2026-05-07 17:44 47.23541 -2.03045 34921 ft 444 kts 212°
2026-05-07 17:45 47.18253 -2.07761 34920 ft 444 kts 212°
2026-05-07 17:45 47.12972 -2.12462 34920 ft 444 kts 212°
2026-05-07 17:46 47.07682 -2.17160 34920 ft 444 kts 212°